This demonstration page uses our WeatherBlox Daily Observations layout. Learn more.

Left ArrowRight Arrow

Hourly Observations for November 5, 2018

Temp ( °F °C ) Dew Point ( °F °C ) Humidity (%) Winds ( mph kmh ) Pressure ( in mb ) Visibility ( mi km ) Precip ( " mm )
12:22 am 00:22 Cloudy with Light Rain 50 10 47 8.3 89 89 S 5 7 30.06 1018 6 10 0.01 0.25
12:53 am 00:53 Cloudy with Rain 50 10 48 8.9 93 93 VRB 5 7 30.04 1017 3 5 0.04 1.02
1:28 am 01:28 Cloudy with Light Rain 50 10 48 8.9 93 93 S 5 7 30.06 1018 7 11 0.01 0.25
1:53 am 01:53 Cloudy with Light Rain 51 10.6 49 9.4 92 92 S 6 9 30.04 1017 4 6 0.02 0.51
2:53 am 02:53 Cloudy 52 11.1 49 9.4 89 89 S 5 7 30.03 1017 10 16 0.01 0.25
3:53 am 03:53 Cloudy 53 11.7 50 10 89 89 SSW 6 9 30.02 1017 10 16 0.00 0.00
4:53 am 04:53 Cloudy 53 11.7 50 10 89 89 S 3 6 30.02 1017 10 16 0.00 0.00
5:53 am 05:53 Cloudy 53 11.7 50 10 89 89 S 7 11 30.03 1017 10 16 0.00 0.00
6:53 am 06:53 Cloudy 53 11.7 50 10 89 89 S 5 7 30.04 1017 10 16 0.00 0.03
7:48 am 07:48 Cloudy 54 12 52 11 94 94 Calm 30.06 1018 10 16 0.00 0.00
7:53 am 07:53 Cloudy 54 12.2 51 10.6 90 90 VRB 3 6 30.04 1017 10 16 0.00 0.00
8:53 am 08:53 Cloudy 54 12.2 51 10.6 90 90 S 6 9 30.06 1018 10 16 0.00 0.03
9:08 am 09:08 Cloudy 55 12.8 52 11.1 90 90 SSW 5 7 30.09 1019 10 16 0.00 0.00
9:53 am 09:53 Cloudy 56 13.3 52 11.1 87 87 VRB 6 9 30.06 1018 10 16 0.00 0.00
10:53 am 10:53 Mostly Cloudy 57 13.9 51 10.6 81 81 VRB 5 7 30.06 1018 10 16 0.00 0.00
11:35 am 11:35 Partly Cloudy 58 14.4 50 10 75 75 VRB 5 7 30.06 1018 10 16 0.00 0.00
11:53 am 11:53 Mostly Cloudy 58 14.4 50 10 75 75 VRB 5 7 30.05 1018 10 16 0.00 0.00
12:05 pm 12:05 Mostly Cloudy 58 14.4 51 10.6 78 78 S 7 11 30.06 1018 10 16 0.00 0.00
12:30 pm 12:30 Partly Cloudy 61 16.1 51 10.6 70 70 VRB 6 9 30.03 1017 10 16 0.00 0.00
12:53 pm 12:53 Mostly Sunny 61 16.1 49 9.4 65 65 SSW 9 15 30.01 1016 10 16 0.00 0.00
1:53 pm 13:53 Mostly Cloudy 60 15.6 48 8.9 65 65 SSW 9 15 30.01 1016 10 16 0.00 0.00
2:53 pm 14:53 Partly Cloudy 60 15.6 48 8.9 65 65 VRB 5 7 29.96 1015 10 16 0.00 0.00
3:53 pm 15:53 Sunny 61 16.1 49 9.4 65 65 SSE 8 13 29.94 1014 10 16 0.00 0.00
4:53 pm 16:53 Sunny 59 15 49 9.4 69 69 SSE 6 9 29.93 1014 10 16 0.00 0.00
5:53 pm 17:53 Mostly Clear 58 14.4 49 9.4 72 72 ESE 6 9 29.88 1012 10 16 0.00 0.00
6:53 pm 18:53 Mostly Clear 57 13.9 49 9.4 74 74 ESE 3 6 29.87 1011 10 16 0.00 0.00
7:53 pm 19:53 Cloudy 55 12.8 50 10 83 83 Calm 29.85 1011 10 16 0.00 0.00
8:53 pm 20:53 Cloudy with Heavy Rain 55 12.8 51 10.6 87 87 E 5 7 29.83 1010 6 10 0.03 0.76
9:53 pm 21:53 Cloudy with Rain 54 12.2 52 11.1 93 93 Calm 29.79 1009 7 11 0.13 3.30
10:53 pm 22:53 Cloudy with Rain 54 12.2 53 11.7 97 97 E 5 7 29.74 1007 5 8 0.16 4.06
11:53 pm 23:53 Cloudy with Heavy Rain 55 12.8 54 12.2 96 96 ESE 7 11 29.67 1005 4 6 0.19 4.83

Powered by AerisWeather